軌道要素
Epoch 2007 Aug. 8.0 TT = JDT 2454320.5
T 2007 Aug. 10.89093 TT Rudenko
q 1.0152508 (2000.0) P Q
z -0.0002733 Peri. 174.11507 -0.33815452 -0.68203886
+/-0.0000046 Node 66.02723 -0.88979210 +0.45609558
e 1.0002775 Incl. 134.79307 -0.30646621 -0.57166408
From 847 observations 2006 Nov. 13-2007 July 26, mean residual 0".6.
|